Location: *
(49.7115°N, 15.0136°E)
Time: 19:05:42
(UTC+00:00)

STARLINK-78 - Pass Details

Date: 27 February 2020
Orbit: 529 x 530 km, 53.0° (Epoch: 06 April)

Event Time Altitude Azimuth Distance (km) Brightness Sun altitude
Rises 18:52:39 0° 287° (WNW) 2,671 8.6 -22.4°
Reaches altitude 10° 18:54:53 10° 291° (WNW) 1,780 7.3 -22.7°
Enters shadow 18:58:41 59° 356° (N) 619 3.8 -23.3°
